Location: Petruro
(41.0333°N, 14.7833°E)
Time: 16:49:23
(UTC+00:00)

Meteor 1-29 - Pass Details

Date: 20 June 2021
Orbit: 434 x 457 km, 97.7° (Epoch: 31 July)

Event Time Altitude Azimuth Distance (km) Brightness Sun altitude
Rises 01:20:08 0° 10° (N) 2,477 7.9 -18.0°
Reaches altitude 10° 01:22:11 10° 9° (N) 1,595 6.7 -17.8°
Maximum altitude 01:25:36 76° 284° (WNW) 468 2.8 -17.5°
Enters shadow 01:26:25 48° 210° (SSW) 594 3.0 -17.4°
